Flag for U.S.A. Weather past 2 weeks in Petersburg, Indiana, U.S.A.

Now
79 °F

Sunny.


Feels Like: 80 °F
Forecast: 58 / 82 °F
Wind: 7 mph from West

Location: Lawrenceville-Vincennes International Airport

Current Time: Jul 30, 2014 at 8:00:22 PM

Latest Report: Jul 30, 2014 at 6:53 PM


Visibility: 10 mi

Pressure: 30.03 "Hg

Humidity: 48%

Dew point: 58 °F

Location of PetersburgLocation

Historic Weather in Petersburg — Graph

°F

Petersburg temperature yesterday

Maximum temperature yesterday: 71 °F (at 8:53 PM)
Minimum temperature yesterday: 54 °F (at 3:53 AM)
Average temperature yesterday: 61 °F

Past Weeks' High & Low Weather Summary

 TemperatureHumidityPressure
High89 °F (Jul 26, 4:53 PM)100% (Jul 26, 11:53 PM)30.16 "Hg (Jul 26, 11:53 PM)
Low54 °F (Jul 17, 6:53 AM)38% (Jul 17, 4:53 PM)29.78 "Hg (Jul 27, 6:53 AM)
Average70 °F75%30.02 "Hg
* Reported Jul 15 6:53 PM — Jul 30 6:53 PM, Petersburg, Weather by CustomWeather, © 2014

Note: Actual official high and low records may vary slightly from our data, if they occured in-between our weather recording intervals... More about our weather records

Advertising

Petersburg weather history for previous 24 hours

 ConditionsComfort  
Time TempWeatherWind HumidityBarometerVisibility
6:53 PM
Jul 30
79 °FSunny.7 mph48%30.03 "Hg10 mi
5:53 PM81 °FSunny.9 mph47%30.03 "Hg10 mi
4:53 PM81 °FPassing clouds.10 mph47%30.05 "Hg10 mi
3:53 PM80 °FSunny.8 mph51%30.06 "Hg10 mi
2:53 PM79 °FScattered clouds.7 mph52%30.07 "Hg10 mi
1:53 PM79 °FPassing clouds.9 mph52%30.08 "Hg10 mi
12:53 PM77 °FPassing clouds.10 mph56%30.09 "Hg10 mi
11:53 AM76 °FSunny.8 mph60%30.09 "Hg10 mi
10:53 AM73 °FSunny.8 mph64%30.10 "Hg10 mi
9:53 AM69 °FSunny.7 mph73%30.09 "Hg10 mi
8:53 AM63 °FSunny.5 mph87%30.09 "Hg8 mi
7:53 AM58 °FFog.No wind93%30.08 "Hg5 mi
6:53 AM56 °FClear.3 mph90%30.07 "Hg7 mi
5:53 AM56 °FClear.No wind93%30.06 "Hg8 mi
4:53 AM58 °FClear.No wind90%30.06 "Hg9 mi
3:53 AM57 °FClear.No wind93%30.06 "Hg8 mi
2:53 AM60 °FClear.No wind90%30.06 "Hg9 mi
1:53 AM59 °FClear.3 mph93%30.07 "Hg9 mi
12:53 AM61 °FClear.No wind90%30.07 "Hg10 mi
11:53 PM
Jul 29
62 °FClear.No wind86%30.07 "Hg10 mi
10:53 PM63 °FClear.No wind87%30.06 "Hg10 mi
9:53 PM67 °FSunny.No wind81%30.06 "Hg10 mi
8:53 PM71 °FSunny.3 mph66%30.05 "Hg10 mi
Weather by CustomWeather, © 2014

See weather overviewHow to use our weather pages